DECAYED

STARLINK-11208, 60311 (Decayed)

Orbit data source: Space-Track

STARLINK-11208, 60311 was a payload satellite owned by SpaceX/Seattle (US) in LEO that was launched on Sun, 28 Jul 2024 UTC via an FALCON 9 launch vehicle from the Air Force Western Test Range (AFWTR). Payload-class satellites include a variety of spacecraft equipped with specific instruments for various scientific and technological missions. These include communications satellites like Starlink; space stations such as the ISS; scientific satellites like the Hubble; Earth observation satellites from companies like Planet Labs, Umbra, and HawkEye 360; GPS; miniature CubeSats for education and research; and military/defense satellites.

Not visible in the next 10 days
Identifier
60311, 2024-133L
Orbit
Decayed
Country
Flag of USUS
Related business
Manufacturer
SpaceX/Seattle
Mission
Decayed Commercial Communications
Bus & Motor
STARLINK V2MD, Unknown motor
Mass
960 kg wet, ~910 kg dry
Launch date (UTC)
2024-07-28 (2 years ago)
Launch vehicle
FALCON 9
Launch site
Air Force Western Test Range (AFWTR)
Object type
Payload
Rocket body
Debris
Shape & HBR
Box + 2 Pan, 18.1 m
Radar Cross Section
36.964 m², Large (>1 m²)

Expand to show TLE details & history
Last TLE update: 1 year ago

TLE from 1 year ago
0 STARLINK-11208
1 60311U 24133L   25166.16096387  .25682834  12160-4  34763-2 0  9991
2 60311  53.1363  20.5094 0011906 259.3130 197.4882 16.34303904 51620
Epoch: 2025-06-15T03:51Z
TLE epoch observation values (Epoch: 2025-06-15T03:51:47.278Z)
Latitude
52.76588°
Longitude
160.06253°
Altitude
194.845 km
Speed
7.792 km/s
True Right ascension
08h 06m 47s
True Declination
52° 35' 09"
Sunlit
Object was in daylight at epoch
Visualization orbit readout
Latitude
Unknown
Longitude
Unknown
Altitude
Unknown
Speed
Unknown
Apparent Right ascension
Unknown
Apparent Declination
Unknown
Sunlit
N/A
Visualization observer readout
Local Sidereal Time
07:17:46
Azimuth
Unknown
Elevation
Unknown
Doppler factor
Unknown
Orbital elements
Apogee altitude
189.08 km
Perigee altitude
173.461 km
Semi-major axis
6,559.407 km
Eccentricity
0.00119
Inclination
53.1363°
RAAN
20.5094°
Arg. of periapsis
259.313°
True anomaly
197.44726°
Mean anomaly
197.4882°
Eccentric anomaly
197.46772°
Mean motion
4.08551 °/min
Orbital period
88.12 mins
BSTAR
0.0034763
Loading maneuver chart data...
Computing Atmospheric mass density...
Loading historical data...
Loading historical data...
Loading historical data...
Loading historical data...
Loading historical data...
Loading historical data...
Loading historical data...

Documentation

Showing up to 5 results
|